QPF
0.00 0.00 0.00 0.01 0.09 0.04 0.00 0.00 0.00 0.00 0.00 0.00 0.00 0.00 0.00 0.01 0.06 0.09 0.01 0.00 0.00 0.00 0.00 0.00 0.00 0.00 0.01 0.01 0.01 0.01 0.02 0.03 0.03 0.03 0.03 0.02 0.02 0.02 0.01 0.01 0.01 0.01 0.01 0.01 0.01 0.01 0.01 0.01 0.02
0.00 0.00 0.01 0.05 0.06 0.01 0.00 0.00 0.00 0.00 0.00 0.00 0.00 0.00 0.00 0.00 0.00 0.00 0.00 0.00 0.00 0.00 0.00 0.00 0.00 0.00 0.00 0.01 0.01 0.01 0.02 0.02 0.02 0.02 0.02 0.02 0.01 0.01 0.01 0.01 0.01 0.01 0.01 0.01 0.01 0.01 0.01 0.02 0.04
0.00 0.00 0.02 0.06 0.01 0.00 0.00 0.00 0.00 0.00 0.00 0.00 0.00 0.00 0.00 0.00 0.00 0.00 0.00 0.00 0.00 0.00 0.00 0.00 0.00 0.00 0.00 0.01 0.01 0.02 0.02 0.02 0.01 0.01 0.01 0.01 0.01 0.01 0.01 0.01 0.01 0.00 0.01 0.01 0.01 0.01 0.01 0.02 0.03
0.00 0.00 0.01 0.01 0.00 0.00 0.00 0.00 0.00 0.00 0.00 0.00 0.00 0.00 0.00 0.00 0.00 0.00 0.00 0.00 0.00 0.00 0.00 0.01 0.00 0.00 0.01 0.01 0.00 0.01 0.01 0.01 0.01 0.01 0.01 0.01 0.01 0.01 0.01 0.01 0.00 0.00 0.00 0.00 0.00 0.01 0.01 0.01 0.02
0.00 0.01 0.02 0.02 0.01 0.00 0.00 0.00 0.00 0.00 0.00 0.00 0.00 0.00 0.01 0.00 0.00 0.00 0.00 0.00 0.00 0.00 0.00 0.00 0.00 0.00 0.00 0.01 0.00 0.01 0.01 0.00 0.00 0.01 0.01 0.01 0.01 0.01 0.00 0.00 0.00 0.00 0.00 0.00 0.00 0.00 0.00 0.01 0.02
0.00 0.01 0.04 0.07 0.04 0.01 0.01 0.01 0.01 0.01 0.00 0.00 0.00 0.00 0.01 0.00 0.00 0.00 0.00 0.00 0.00 0.00 0.00 0.01 0.00 0.01 0.00 0.01 0.01 0.02 0.02 0.01 0.01 0.01 0.01 0.01 0.01 0.01 0.00 0.00 0.00 0.00 0.00 0.00 0.00 0.00 0.00 0.00 0.01
0.00 0.01 0.02 0.02 0.04 0.02 0.01 0.01 0.02 0.03 0.01 0.01 0.01 0.03 0.05 0.02 0.01 0.00 0.00 0.00 0.00 0.01 0.01 0.01 0.02 0.02 0.02 0.02 0.02 0.03 0.04 0.03 0.03 0.03 0.02 0.01 0.01 0.02 0.01 0.00 0.00 0.00 0.00 0.00 0.00 0.00 0.00 0.00 0.00
0.00 0.00 0.02 0.04 0.07 0.09 0.01 0.00 0.01 0.01 0.02 0.01 0.03 0.06 0.11 0.07 0.03 0.01 0.01 0.00 0.00 0.01 0.01 0.02 0.04 0.05 0.09 0.12 0.11 0.08 0.07 0.07 0.07 0.06 0.04 0.04 0.02 0.01 0.02 0.01 0.00 0.00 0.00 0.00 0.00 0.00 0.00 0.01 0.00
0.00 0.02 0.09 0.09 0.06 0.09 0.02 0.01 0.01 0.01 0.03 0.02 0.02 0.06 0.08 0.05 0.04 0.04 0.04 0.05 0.03 0.02 0.02 0.02 0.05 0.09 0.13 0.14 0.21 0.21 0.15 0.13 0.11 0.09 0.06 0.04 0.02 0.08 0.11 0.04 0.01 0.00 0.00 0.00 0.00 0.00 0.01 0.01 0.00
0.00 0.05 0.08 0.03 0.01 0.02 0.02 0.02 0.02 0.03 0.04 0.04 0.04 0.06 0.06 0.06 0.07 0.09 0.11 0.11 0.12 0.08 0.05 0.04 0.05 0.06 0.08 0.08 0.18 0.26 0.21 0.25 0.17 0.21 0.20 0.11 0.10 0.20 0.22 0.12 0.03 0.01 0.00 0.00 0.00 0.00 0.00 0.00 0.00
0.00 0.02 0.01 0.00 0.00 0.00 0.01 0.02 0.03 0.03 0.04 0.03 0.04 0.05 0.06 0.07 0.08 0.07 0.07 0.07 0.09 0.09 0.07 0.06 0.06 0.06 0.08 0.11 0.14 0.21 0.27 0.31 0.32 0.36 0.42 0.34 0.24 0.18 0.13 0.12 0.07 0.02 0.01 0.00 0.00 0.00 0.00 0.00 0.00
0.00 0.00 0.00 0.00 0.00 0.00 0.00 0.00 0.01 0.01 0.01 0.02 0.03 0.04 0.06 0.08 0.08 0.08 0.06 0.06 0.07 0.09 0.08 0.08 0.07 0.07 0.09 0.11 0.14 0.20 0.24 0.26 0.27 0.28 0.35 0.50 0.43 0.24 0.17 0.20 0.15 0.07 0.03 0.02 0.01 0.00 0.00 0.00 0.00
0.00 0.00 0.00 0.00 0.00 0.00 0.00 0.00 0.00 0.00 0.01 0.01 0.01 0.03 0.05 0.06 0.07 0.07 0.07 0.07 0.06 0.07 0.07 0.06 0.05 0.06 0.09 0.10 0.11 0.13 0.18 0.22 0.25 0.33 0.30 0.36 0.37 0.25 0.17 0.15 0.14 0.07 0.03 0.01 0.01 0.00 0.00 0.00 0.00
0.00 0.00 0.00 0.00 0.00 0.00 0.00 0.00 0.00 0.00 0.00 0.01 0.01 0.01 0.02 0.03 0.03 0.03 0.03 0.03 0.03 0.04 0.05 0.04 0.04 0.05 0.06 0.08 0.08 0.10 0.13 0.17 0.18 0.22 0.20 0.28 0.36 0.32 0.24 0.13 0.14 0.09 0.03 0.01 0.00 0.00 0.00 0.00 0.00
0.00 0.00 0.00 0.00 0.00 0.00 0.00 0.00 0.00 0.00 0.00 0.00 0.01 0.01 0.01 0.01 0.01 0.01 0.01 0.01 0.01 0.02 0.02 0.02 0.02 0.03 0.04 0.04 0.05 0.07 0.11 0.15 0.18 0.17 0.15 0.22 0.31 0.30 0.23 0.14 0.12 0.10 0.06 0.03 0.01 0.01 0.00 0.00 0.00
0.00 0.01 0.05 0.02 0.01 0.01 0.02 0.02 0.00 0.00 0.00 0.00 0.00 0.00 0.00 0.00 0.00 0.00 0.00 0.00 0.00 0.00 0.01 0.01 0.01 0.01 0.02 0.02 0.02 0.03 0.05 0.09 0.11 0.13 0.13 0.14 0.22 0.27 0.25 0.19 0.12 0.11 0.13 0.08 0.04 0.02 0.01 0.00 0.00
0.00 0.02 0.06 0.03 0.01 0.00 0.01 0.01 0.00 0.00 0.00 0.00 0.00 0.00 0.00 0.00 0.00 0.00 0.00 0.00 0.00 0.00 0.00 0.01 0.01 0.01 0.01 0.01 0.02 0.02 0.02 0.03 0.05 0.09 0.11 0.11 0.15 0.21 0.29 0.24 0.16 0.12 0.16 0.16 0.09 0.04 0.02 0.01 0.00
0.00 0.01 0.01 0.01 0.00 0.00 0.00 0.00 0.00 0.00 0.00 0.00 0.00 0.00 0.00 0.00 0.00 0.00 0.00 0.00 0.00 0.00 0.00 0.00 0.00 0.00 0.01 0.01 0.02 0.02 0.03 0.03 0.04 0.08 0.12 0.14 0.13 0.17 0.26 0.24 0.19 0.18 0.18 0.17 0.14 0.09 0.04 0.02 0.01
0.00 0.00 0.00 0.00 0.00 0.00 0.00 0.00 0.00 0.00 0.00 0.00 0.00 0.00 0.00 0.00 0.00 0.00 0.00 0.00 0.00 0.00 0.00 0.00 0.00 0.00 0.00 0.01 0.01 0.01 0.02 0.03 0.04 0.06 0.09 0.15 0.15 0.15 0.19 0.22 0.22 0.22 0.19 0.17 0.15 0.15 0.10 0.04 0.02
0.00 0.00 0.00 0.00 0.00 0.00 0.00 0.00 0.00 0.00 0.00 0.00 0.00 0.00 0.00 0.00 0.00 0.00 0.00 0.00 0.00 0.00 0.00 0.00 0.00 0.01 0.01 0.02 0.02 0.02 0.02 0.03 0.05 0.05 0.04 0.08 0.14 0.18 0.18 0.21 0.22 0.23 0.21 0.20 0.18 0.21 0.17 0.08 0.04
0.00 0.00 0.00 0.00 0.00 0.00 0.00 0.00 0.00 0.00 0.00 0.00 0.00 0.00 0.00 0.00 0.00 0.00 0.00 0.00 0.01 0.01 0.01 0.02 0.02 0.03 0.04 0.04 0.04 0.04 0.04 0.04 0.05 0.06 0.06 0.06 0.09 0.14 0.17 0.21 0.25 0.25 0.26 0.24 0.22 0.24 0.23 0.17 0.09
0.00 0.00 0.00 0.00 0.00 0.00 0.00 0.00 0.00 0.00 0.00 0.00 0.00 0.00 0.00 0.00 0.00 0.00 0.00 0.01 0.02 0.02 0.03 0.05 0.06 0.06 0.07 0.07 0.07 0.06 0.07 0.06 0.05 0.07 0.07 0.10 0.10 0.12 0.16 0.19 0.25 0.25 0.27 0.27 0.25 0.23 0.21 0.20 0.16
0.00 0.00 0.00 0.00 0.00 0.00 0.00 0.00 0.00 0.00 0.00 0.00 0.00 0.00 0.00 0.00 0.00 0.01 0.01 0.02 0.02 0.03 0.05 0.07 0.07 0.07 0.08 0.09 0.10 0.10 0.09 0.09 0.09 0.08 0.06 0.09 0.14 0.14 0.17 0.20 0.24 0.26 0.26 0.25 0.26 0.28 0.24 0.19 0.17
0.00 0.00 0.00 0.00 0.00 0.00 0.00 0.00 0.01 0.00 0.00 0.00 0.00 0.00 0.00 0.00 0.00 0.01 0.01 0.02 0.04 0.05 0.06 0.06 0.06 0.07 0.10 0.12 0.13 0.12 0.10 0.11 0.11 0.11 0.09 0.09 0.12 0.14 0.17 0.20 0.25 0.27 0.31 0.31 0.31 0.30 0.27 0.23 0.20
0.00 0.00 0.00 0.00 0.00 0.00 0.00 0.00 0.00 0.00 0.00 0.00 0.00 0.00 0.00 0.00 0.00 0.01 0.01 0.03 0.04 0.05 0.06 0.07 0.07 0.08 0.08 0.12 0.13 0.13 0.13 0.13 0.13 0.14 0.14 0.13 0.13 0.14 0.16 0.18 0.20 0.24 0.29 0.33 0.35 0.33 0.28 0.25 0.22
0.00 0.00 0.00 0.00 0.00 0.01 0.00 0.00 0.00 0.00 0.00 0.00 0.00 0.00 0.00 0.00 0.00 0.01 0.02 0.03 0.04 0.05 0.05 0.06 0.08 0.08 0.07 0.08 0.12 0.12 0.15 0.18 0.18 0.17 0.17 0.15 0.16 0.17 0.16 0.18 0.19 0.21 0.27 0.30 0.34 0.35 0.34 0.33 0.28
0.00 0.00 0.00 0.00 0.00 0.00 0.00 0.00 0.00 0.00 0.00 0.00 0.00 0.00 0.00 0.00 0.00 0.01 0.01 0.02 0.02 0.04 0.04 0.05 0.06 0.06 0.06 0.06 0.06 0.07 0.14 0.19 0.18 0.18 0.15 0.14 0.13 0.14 0.13 0.15 0.19 0.19 0.22 0.26 0.27 0.29 0.29 0.30 0.29
0.00 0.00 0.00 0.00 0.00 0.01 0.00 0.00 0.00 0.00 0.00 0.00 0.00 0.00 0.00 0.00 0.00 0.01 0.01 0.01 0.01 0.02 0.03 0.04 0.03 0.04 0.05 0.06 0.07 0.08 0.10 0.10 0.13 0.15 0.12 0.11 0.13 0.13 0.12 0.13 0.13 0.14 0.14 0.17 0.19 0.22 0.22 0.22 0.23
0.00 0.00 0.00 0.00 0.00 0.00 0.01 0.00 0.00 0.00 0.00 0.00 0.00 0.00 0.00 0.00 0.00 0.00 0.01 0.01 0.01 0.01 0.02 0.03 0.03 0.03 0.04 0.05 0.05 0.07 0.08 0.05 0.06 0.07 0.07 0.08 0.09 0.12 0.11 0.09 0.09 0.07 0.07 0.07 0.08 0.11 0.14 0.15 0.16
0.00 0.00 0.00 0.00 0.00 0.00 0.00 0.00 0.00 0.00 0.00 0.00 0.00 0.00 0.00 0.00 0.00 0.00 0.00 0.00 0.01 0.01 0.02 0.03 0.02 0.03 0.02 0.03 0.03 0.05 0.05 0.03 0.03 0.02 0.03 0.06 0.07 0.08 0.09 0.07 0.05 0.05 0.05 0.06 0.05 0.05 0.06 0.09 0.11
MSLP
1006.77 1007.75 1008.96 1010.23 1011.35 1012.18 1012.60 1012.60 1012.25 1011.69 1011.10 1010.63 1010.40 1010.44 1010.72 1011.14 1011.59 1011.96 1012.18 1012.24 1012.19 1012.11 1012.08 1012.17 1012.40 1012.77 1013.20 1013.62 1013.96 1014.19 1014.29 1014.30 1014.27 1014.28 1014.36 1014.54 1014.80 1015.11 1015.41 1015.67 1015.85 1015.95 1015.98 1015.97 1015.97 1015.98 1016.02 1016.10 1016.17
1007.18 1008.33 1009.64 1010.91 1011.95 1012.62 1012.85 1012.64 1012.10 1011.40 1010.72 1010.21 1009.98 1010.03 1010.33 1010.76 1011.21 1011.57 1011.79 1011.87 1011.87 1011.87 1011.94 1012.15 1012.50 1012.96 1013.45 1013.90 1014.25 1014.46 1014.54 1014.53 1014.49 1014.50 1014.58 1014.75 1014.99 1015.26 1015.52 1015.71 1015.82 1015.86 1015.86 1015.85 1015.86 1015.92 1016.02 1016.14 1016.25
1007.70 1008.97 1010.32 1011.55 1012.47 1012.97 1013.00 1012.61 1011.94 1011.14 1010.43 1009.93 1009.72 1009.80 1010.10 1010.51 1010.92 1011.24 1011.42 1011.50 1011.52 1011.58 1011.75 1012.07 1012.52 1013.07 1013.62 1014.10 1014.46 1014.66 1014.73 1014.72 1014.69 1014.71 1014.81 1014.98 1015.21 1015.44 1015.64 1015.76 1015.80 1015.79 1015.76 1015.74 1015.78 1015.87 1016.02 1016.18 1016.32
1008.25 1009.61 1010.96 1012.11 1012.91 1013.25 1013.12 1012.61 1011.86 1011.05 1010.36 1009.91 1009.74 1009.85 1010.14 1010.50 1010.83 1011.05 1011.16 1011.19 1011.21 1011.31 1011.55 1011.95 1012.49 1013.10 1013.70 1014.20 1014.55 1014.75 1014.82 1014.82 1014.81 1014.86 1014.99 1015.18 1015.41 1015.62 1015.77 1015.84 1015.83 1015.78 1015.73 1015.71 1015.77 1015.90 1016.07 1016.25 1016.40
1008.82 1010.20 1011.52 1012.58 1013.25 1013.47 1013.25 1012.69 1011.95 1011.20 1010.60 1010.24 1010.15 1010.27 1010.53 1010.80 1011.01 1011.11 1011.10 1011.05 1011.03 1011.13 1011.40 1011.85 1012.44 1013.08 1013.69 1014.18 1014.52 1014.70 1014.77 1014.79 1014.82 1014.91 1015.08 1015.31 1015.56 1015.77 1015.90 1015.94 1015.90 1015.84 1015.78 1015.78 1015.86 1016.01 1016.20 1016.38 1016.52
1009.35 1010.73 1011.98 1012.94 1013.52 1013.66 1013.42 1012.90 1012.25 1011.63 1011.18 1010.95 1010.93 1011.07 1011.28 1011.45 1011.51 1011.45 1011.31 1011.15 1011.07 1011.14 1011.41 1011.86 1012.45 1013.07 1013.65 1014.10 1014.40 1014.55 1014.61 1014.63 1014.70 1014.84 1015.06 1015.34 1015.61 1015.84 1015.98 1016.02 1015.99 1015.93 1015.89 1015.91 1016.02 1016.18 1016.38 1016.55 1016.66
1009.86 1011.17 1012.34 1013.21 1013.72 1013.85 1013.65 1013.24 1012.75 1012.33 1012.06 1011.97 1012.04 1012.19 1012.33 1012.39 1012.31 1012.09 1011.81 1011.54 1011.38 1011.40 1011.63 1012.05 1012.58 1013.14 1013.64 1014.01 1014.23 1014.33 1014.36 1014.40 1014.49 1014.67 1014.93 1015.25 1015.55 1015.80 1015.96 1016.02 1016.01 1015.98 1015.98 1016.04 1016.17 1016.35 1016.54 1016.69 1016.77
1010.32 1011.54 1012.61 1013.41 1013.89 1014.04 1013.94 1013.69 1013.41 1013.20 1013.13 1013.18 1013.33 1013.48 1013.57 1013.51 1013.30 1012.95 1012.55 1012.20 1011.97 1011.93 1012.10 1012.44 1012.89 1013.34 1013.72 1013.97 1014.10 1014.12 1014.11 1014.13 1014.23 1014.44 1014.73 1015.06 1015.39 1015.65 1015.83 1015.91 1015.93 1015.94 1015.98 1016.08 1016.24 1016.43 1016.62 1016.74 1016.78
1010.73 1011.86 1012.83 1013.56 1014.03 1014.25 1014.29 1014.22 1014.16 1014.16 1014.26 1014.44 1014.65 1014.79 1014.82 1014.67 1014.36 1013.92 1013.45 1013.04 1012.76 1012.67 1012.78 1013.02 1013.35 1013.67 1013.90 1014.02 1014.03 1013.97 1013.91 1013.90 1014.00 1014.21 1014.50 1014.84 1015.16 1015.41 1015.58 1015.67 1015.72 1015.76 1015.84 1015.97 1016.15 1016.36 1016.54 1016.64 1016.66
1011.11 1012.13 1013.01 1013.70 1014.19 1014.49 1014.67 1014.79 1014.93 1015.11 1015.35 1015.62 1015.84 1015.97 1015.93 1015.72 1015.34 1014.86 1014.37 1013.94 1013.65 1013.53 1013.57 1013.73 1013.92 1014.09 1014.17 1014.15 1014.04 1013.90 1013.79 1013.76 1013.84 1014.03 1014.31 1014.62 1014.90 1015.12 1015.26 1015.34 1015.38 1015.44 1015.54 1015.69 1015.89 1016.10 1016.27 1016.37 1016.37
1011.46 1012.38 1013.20 1013.86 1014.38 1014.78 1015.09 1015.38 1015.67 1015.98 1016.30 1016.60 1016.81 1016.88 1016.78 1016.51 1016.11 1015.63 1015.16 1014.77 1014.50 1014.37 1014.37 1014.44 1014.51 1014.53 1014.47 1014.32 1014.12 1013.91 1013.76 1013.70 1013.77 1013.95 1014.19 1014.44 1014.67 1014.82 1014.91 1014.94 1014.96 1015.01 1015.11 1015.27 1015.47 1015.67 1015.84 1015.92 1015.92
1011.80 1012.65 1013.41 1014.07 1014.63 1015.11 1015.54 1015.95 1016.34 1016.73 1017.07 1017.33 1017.47 1017.47 1017.30 1016.99 1016.58 1016.14 1015.72 1015.39 1015.18 1015.06 1015.03 1015.03 1015.00 1014.90 1014.71 1014.47 1014.19 1013.95 1013.78 1013.73 1013.79 1013.94 1014.14 1014.34 1014.48 1014.56 1014.58 1014.55 1014.53 1014.55 1014.63 1014.78 1014.97 1015.16 1015.31 1015.38 1015.39
1012.16 1012.96 1013.68 1014.34 1014.94 1015.49 1016.01 1016.50 1016.95 1017.34 1017.64 1017.82 1017.86 1017.74 1017.50 1017.15 1016.74 1016.34 1016.00 1015.75 1015.60 1015.52 1015.47 1015.41 1015.30 1015.10 1014.83 1014.52 1014.22 1013.96 1013.81 1013.77 1013.83 1013.97 1014.14 1014.27 1014.34 1014.35 1014.29 1014.20 1014.14 1014.13 1014.19 1014.31 1014.48 1014.65 1014.78 1014.85 1014.85
1012.59 1013.33 1014.03 1014.69 1015.32 1015.92 1016.50 1017.02 1017.48 1017.82 1018.04 1018.10 1018.01 1017.78 1017.44 1017.04 1016.64 1016.29 1016.02 1015.85 1015.75 1015.70 1015.64 1015.55 1015.37 1015.11 1014.79 1014.45 1014.14 1013.90 1013.78 1013.77 1013.85 1013.98 1014.12 1014.20 1014.22 1014.16 1014.04 1013.92 1013.82 1013.79 1013.83 1013.95 1014.10 1014.25 1014.36 1014.42 1014.42
1013.09 1013.78 1014.44 1015.09 1015.74 1016.37 1016.98 1017.51 1017.94 1018.23 1018.34 1018.28 1018.05 1017.70 1017.27 1016.83 1016.42 1016.10 1015.89 1015.77 1015.71 1015.67 1015.61 1015.48 1015.26 1014.96 1014.61 1014.26 1013.97 1013.76 1013.67 1013.69 1013.79 1013.92 1014.03 1014.08 1014.05 1013.95 1013.81 1013.67 1013.58 1013.55 1013.61 1013.73 1013.88 1014.03 1014.13 1014.18 1014.18
1013.67 1014.29 1014.90 1015.53 1016.17 1016.82 1017.43 1017.96 1018.36 1018.58 1018.60 1018.43 1018.09 1017.64 1017.13 1016.65 1016.23 1015.93 1015.74 1015.65 1015.61 1015.57 1015.48 1015.32 1015.06 1014.73 1014.37 1014.02 1013.74 1013.56 1013.50 1013.53 1013.63 1013.74 1013.83 1013.85 1013.79 1013.68 1013.55 1013.43 1013.37 1013.39 1013.49 1013.64 1013.82 1013.98 1014.10 1014.15 1014.16
1014.31 1014.84 1015.38 1015.96 1016.58 1017.22 1017.82 1018.34 1018.72 1018.89 1018.86 1018.61 1018.20 1017.69 1017.14 1016.63 1016.21 1015.91 1015.72 1015.63 1015.58 1015.51 1015.39 1015.18 1014.89 1014.54 1014.16 1013.82 1013.55 1013.37 1013.31 1013.33 1013.40 1013.47 1013.51 1013.49 1013.42 1013.32 1013.21 1013.15 1013.15 1013.24 1013.41 1013.63 1013.87 1014.08 1014.23 1014.31 1014.34
1014.95 1015.37 1015.83 1016.35 1016.93 1017.54 1018.14 1018.65 1019.02 1019.18 1019.13 1018.87 1018.45 1017.92 1017.37 1016.86 1016.44 1016.14 1015.94 1015.82 1015.73 1015.62 1015.45 1015.20 1014.87 1014.49 1014.10 1013.75 1013.46 1013.27 1013.17 1013.14 1013.14 1013.14 1013.11 1013.05 1012.95 1012.86 1012.79 1012.79 1012.88 1013.06 1013.32 1013.63 1013.94 1014.22 1014.43 1014.57 1014.64
1015.54 1015.86 1016.22 1016.67 1017.20 1017.79 1018.37 1018.89 1019.27 1019.45 1019.42 1019.20 1018.81 1018.33 1017.81 1017.33 1016.93 1016.63 1016.41 1016.26 1016.12 1015.95 1015.73 1015.43 1015.06 1014.66 1014.25 1013.87 1013.56 1013.32 1013.15 1013.03 1012.93 1012.83 1012.71 1012.57 1012.44 1012.33 1012.29 1012.35 1012.52 1012.79 1013.14 1013.54 1013.93 1014.29 1014.58 1014.79 1014.93
1016.04 1016.26 1016.54 1016.92 1017.40 1017.96 1018.53 1019.05 1019.45 1019.68 1019.71 1019.56 1019.25 1018.85 1018.41 1017.98 1017.62 1017.32 1017.09 1016.90 1016.70 1016.48 1016.20 1015.86 1015.46 1015.03 1014.61 1014.21 1013.85 1013.55 1013.29 1013.06 1012.84 1012.61 1012.37 1012.14 1011.94 1011.81 1011.77 1011.86 1012.08 1012.41 1012.83 1013.29 1013.76 1014.19 1014.56 1014.86 1015.09
1016.42 1016.56 1016.79 1017.12 1017.56 1018.09 1018.65 1019.17 1019.59 1019.86 1019.96 1019.89 1019.68 1019.38 1019.03 1018.68 1018.37 1018.09 1017.85 1017.62 1017.39 1017.11 1016.79 1016.41 1015.99 1015.55 1015.11 1014.69 1014.30 1013.94 1013.59 1013.24 1012.89 1012.53 1012.16 1011.82 1011.54 1011.35 1011.29 1011.37 1011.60 1011.94 1012.38 1012.87 1013.37 1013.85 1014.28 1014.66 1014.99
1016.69 1016.81 1017.01 1017.32 1017.74 1018.23 1018.77 1019.27 1019.70 1020.00 1020.15 1020.15 1020.03 1019.83 1019.57 1019.30 1019.03 1018.78 1018.54 1018.29 1018.02 1017.71 1017.35 1016.96 1016.53 1016.10 1015.66 1015.23 1014.82 1014.41 1013.99 1013.54 1013.08 1012.60 1012.12 1011.67 1011.30 1011.04 1010.91 1010.94 1011.12 1011.43 1011.83 1012.29 1012.78 1013.26 1013.73 1014.17 1014.58
1016.90 1017.04 1017.25 1017.56 1017.97 1018.44 1018.94 1019.41 1019.80 1020.09 1020.26 1020.30 1020.24 1020.10 1019.92 1019.71 1019.49 1019.26 1019.03 1018.77 1018.47 1018.14 1017.77 1017.37 1016.96 1016.54 1016.13 1015.71 1015.30 1014.87 1014.40 1013.90 1013.36 1012.79 1012.22 1011.68 1011.23 1010.88 1010.68 1010.63 1010.72 1010.94 1011.26 1011.64 1012.06 1012.50 1012.95 1013.42 1013.89
1017.11 1017.30 1017.56 1017.89 1018.29 1018.73 1019.18 1019.58 1019.92 1020.16 1020.29 1020.33 1020.29 1020.18 1020.04 1019.87 1019.68 1019.47 1019.24 1018.98 1018.67 1018.33 1017.97 1017.58 1017.19 1016.80 1016.42 1016.04 1015.64 1015.22 1014.75 1014.23 1013.65 1013.04 1012.42 1011.83 1011.31 1010.90 1010.61 1010.46 1010.45 1010.55 1010.74 1011.00 1011.31 1011.66 1012.06 1012.50 1012.99
1017.35 1017.62 1017.93 1018.30 1018.71 1019.11 1019.50 1019.82 1020.06 1020.21 1020.27 1020.26 1020.19 1020.07 1019.94 1019.78 1019.61 1019.41 1019.18 1018.92 1018.61 1018.28 1017.92 1017.55 1017.19 1016.84 1016.50 1016.16 1015.81 1015.42 1014.97 1014.47 1013.90 1013.29 1012.66 1012.06 1011.51 1011.06 1010.70 1010.47 1010.34 1010.31 1010.36 1010.48 1010.66 1010.90 1011.20 1011.58 1012.05
1017.64 1017.98 1018.36 1018.77 1019.17 1019.54 1019.84 1020.07 1020.21 1020.25 1020.21 1020.12 1019.99 1019.84 1019.68 1019.51 1019.34 1019.14 1018.91 1018.65 1018.35 1018.02 1017.68 1017.34 1017.01 1016.70 1016.40 1016.10 1015.80 1015.45 1015.05 1014.59 1014.06 1013.50 1012.91 1012.33 1011.79 1011.32 1010.93 1010.63 1010.41 1010.27 1010.19 1010.18 1010.22 1010.33 1010.52 1010.82 1011.22
1017.94 1018.35 1018.78 1019.20 1019.60 1019.92 1020.16 1020.29 1020.33 1020.26 1020.12 1019.94 1019.74 1019.54 1019.34 1019.15 1018.96 1018.76 1018.53 1018.27 1017.98 1017.67 1017.35 1017.03 1016.73 1016.44 1016.18 1015.93 1015.66 1015.36 1015.02 1014.61 1014.15 1013.65 1013.12 1012.60 1012.10 1011.65 1011.26 1010.93 1010.66 1010.44 1010.27 1010.14 1010.07 1010.06 1010.14 1010.34 1010.65
1018.22 1018.65 1019.10 1019.53 1019.90 1020.18 1020.36 1020.42 1020.36 1020.22 1020.00 1019.75 1019.49 1019.24 1019.01 1018.79 1018.59 1018.38 1018.14 1017.89 1017.61 1017.31 1017.01 1016.71 1016.43 1016.18 1015.94 1015.72 1015.49 1015.23 1014.94 1014.59 1014.20 1013.77 1013.32 1012.87 1012.43 1012.04 1011.68 1011.36 1011.07 1010.82 1010.59 1010.39 1010.23 1010.14 1010.12 1010.22 1010.43
1018.39 1018.81 1019.24 1019.65 1019.99 1020.23 1020.36 1020.37 1020.27 1020.08 1019.83 1019.54 1019.25 1018.98 1018.73 1018.49 1018.27 1018.05 1017.82 1017.57 1017.30 1017.01 1016.73 1016.46 1016.20 1015.98 1015.77 1015.57 1015.37 1015.14 1014.89 1014.59 1014.26 1013.90 1013.53 1013.16 1012.80 1012.46 1012.16 1011.87 1011.61 1011.35 1011.11 1010.88 1010.69 1010.54 1010.45 1010.46 1010.58
1018.42 1018.79 1019.18 1019.53 1019.82 1020.03 1020.13 1020.13 1020.02 1019.83 1019.59 1019.31 1019.03 1018.76 1018.51 1018.27 1018.04 1017.81 1017.57 1017.32 1017.06 1016.80 1016.54 1016.29 1016.07 1015.87 1015.69 1015.52 1015.34 1015.15 1014.93 1014.68 1014.40 1014.10 1013.80 1013.49 1013.21 1012.94 1012.68 1012.45 1012.22 1011.99 1011.76 1011.54 1011.33 1011.16 1011.04 1010.99 1011.02
Thickness
5854 5853 5851 5838 5815 5801 5791 5802 5815 5817 5825 5838 5841 5835 5819 5808 5797 5785 5813 5828 5823 5815 5807 5803 5800 5798 5795 5793 5791 5789 5787 5784 5782 5780 5778 5776 5774 5772 5770 5769 5767 5766 5766 5765 5764 5764 5764 5764 5765
5860 5859 5846 5826 5800 5783 5787 5807 5812 5820 5833 5842 5839 5832 5820 5813 5817 5813 5820 5825 5822 5814 5808 5804 5800 5797 5795 5793 5791 5789 5787 5784 5782 5780 5778 5776 5774 5772 5770 5769 5767 5766 5765 5764 5764 5763 5763 5763 5763
5863 5861 5836 5815 5802 5789 5791 5811 5818 5830 5840 5839 5829 5824 5815 5811 5819 5817 5821 5825 5821 5815 5808 5802 5798 5796 5793 5792 5790 5788 5786 5784 5782 5780 5778 5776 5775 5773 5771 5769 5768 5766 5765 5764 5763 5763 5762 5762 5762
5863 5849 5834 5812 5799 5807 5811 5819 5827 5826 5832 5834 5828 5813 5812 5822 5822 5821 5825 5825 5819 5813 5806 5799 5796 5794 5792 5790 5788 5787 5786 5784 5782 5780 5778 5777 5775 5773 5772 5770 5768 5767 5765 5764 5763 5762 5761 5761 5761
5860 5835 5808 5798 5802 5813 5823 5829 5830 5821 5821 5825 5819 5802 5801 5819 5825 5824 5824 5822 5816 5812 5805 5798 5795 5792 5790 5788 5787 5786 5784 5783 5782 5780 5779 5777 5775 5774 5772 5770 5769 5767 5766 5764 5763 5762 5761 5761 5760
5841 5827 5792 5783 5797 5810 5818 5825 5824 5817 5816 5819 5815 5802 5798 5816 5818 5820 5821 5820 5818 5812 5806 5798 5794 5791 5789 5787 5785 5784 5783 5782 5781 5780 5778 5777 5775 5774 5772 5771 5769 5768 5766 5765 5763 5762 5761 5761 5760
5832 5815 5797 5797 5795 5803 5813 5823 5815 5808 5804 5807 5813 5798 5794 5806 5813 5817 5818 5817 5814 5812 5806 5799 5795 5791 5789 5787 5785 5784 5782 5781 5780 5779 5778 5776 5775 5774 5772 5771 5770 5768 5767 5766 5764 5763 5762 5761 5761
5842 5822 5801 5795 5790 5793 5814 5818 5813 5805 5796 5805 5806 5787 5781 5796 5810 5812 5811 5810 5808 5807 5804 5801 5797 5794 5790 5788 5785 5783 5782 5780 5779 5778 5777 5775 5774 5773 5772 5771 5770 5769 5768 5767 5765 5764 5763 5762 5761
5846 5806 5783 5788 5792 5792 5807 5805 5804 5804 5793 5790 5789 5783 5784 5796 5800 5798 5795 5795 5795 5796 5797 5796 5795 5792 5791 5789 5787 5783 5781 5779 5778 5776 5775 5774 5774 5774 5773 5772 5771 5769 5768 5767 5766 5765 5764 5763 5762
5832 5793 5793 5805 5808 5797 5794 5791 5794 5785 5775 5773 5775 5779 5784 5786 5785 5781 5779 5778 5780 5782 5786 5788 5787 5787 5787 5787 5785 5782 5780 5778 5776 5776 5774 5773 5774 5775 5774 5773 5771 5770 5768 5768 5767 5766 5765 5764 5764
5821 5801 5805 5807 5809 5802 5789 5778 5780 5774 5756 5756 5758 5764 5771 5773 5771 5769 5768 5769 5770 5773 5775 5778 5780 5780 5780 5781 5780 5778 5778 5776 5775 5774 5773 5772 5772 5773 5773 5773 5771 5769 5768 5767 5767 5766 5766 5767 5768
5809 5804 5807 5804 5805 5797 5786 5774 5761 5755 5748 5756 5758 5760 5761 5761 5760 5760 5760 5761 5763 5764 5765 5768 5770 5771 5771 5772 5773 5773 5772 5771 5771 5771 5770 5769 5769 5770 5772 5771 5771 5771 5770 5769 5768 5768 5770 5771 5773
5800 5793 5795 5793 5788 5780 5771 5759 5751 5745 5750 5753 5754 5753 5752 5752 5753 5755 5756 5756 5756 5756 5758 5760 5761 5762 5762 5763 5764 5766 5767 5767 5768 5767 5766 5767 5767 5769 5772 5772 5772 5773 5773 5772 5771 5771 5774 5775 5777
5800 5794 5790 5787 5781 5775 5761 5753 5745 5737 5745 5744 5744 5743 5744 5743 5745 5746 5747 5747 5748 5750 5751 5753 5754 5754 5754 5754 5755 5757 5759 5762 5763 5763 5763 5763 5765 5766 5769 5770 5771 5772 5774 5774 5772 5773 5775 5776 5776
5802 5786 5779 5778 5774 5767 5760 5736 5730 5733 5736 5733 5734 5735 5736 5736 5737 5736 5737 5738 5739 5741 5744 5746 5747 5747 5747 5747 5748 5749 5751 5754 5756 5758 5759 5761 5761 5762 5764 5766 5768 5769 5771 5772 5772 5772 5773 5773 5773
5793 5775 5754 5762 5768 5766 5752 5715 5723 5729 5727 5723 5724 5725 5726 5727 5728 5729 5729 5729 5731 5732 5734 5737 5739 5739 5739 5739 5740 5741 5743 5746 5749 5752 5754 5756 5757 5757 5758 5761 5763 5764 5765 5766 5768 5768 5767 5767 5767
5777 5759 5743 5744 5759 5757 5739 5711 5716 5723 5719 5715 5715 5716 5716 5716 5717 5718 5719 5719 5720 5722 5724 5726 5728 5728 5730 5731 5732 5733 5735 5738 5741 5745 5748 5750 5752 5753 5754 5755 5757 5759 5759 5760 5762 5762 5762 5760 5761
5758 5757 5752 5739 5743 5740 5722 5708 5711 5714 5710 5706 5706 5706 5705 5703 5703 5706 5707 5708 5709 5711 5713 5715 5716 5718 5720 5721 5722 5724 5727 5730 5733 5736 5740 5742 5745 5747 5748 5748 5751 5753 5753 5754 5754 5754 5756 5756 5756
5764 5758 5749 5738 5742 5730 5716 5705 5703 5705 5701 5696 5695 5694 5692 5691 5694 5695 5696 5697 5697 5699 5700 5701 5703 5706 5707 5707 5707 5710 5713 5718 5723 5728 5732 5735 5738 5740 5742 5743 5745 5746 5747 5747 5748 5747 5747 5748 5751
5760 5750 5745 5736 5735 5726 5711 5701 5700 5697 5692 5688 5685 5683 5682 5680 5681 5682 5683 5684 5685 5685 5687 5689 5690 5691 5693 5695 5697 5699 5702 5707 5713 5719 5723 5728 5731 5734 5735 5737 5739 5741 5741 5742 5742 5742 5739 5740 5744
5749 5741 5734 5727 5725 5722 5708 5692 5690 5691 5689 5685 5681 5677 5674 5671 5670 5670 5671 5672 5673 5673 5675 5677 5677 5679 5681 5683 5685 5688 5691 5695 5700 5706 5712 5718 5723 5727 5730 5731 5733 5735 5737 5737 5738 5738 5735 5732 5735
5734 5736 5729 5722 5709 5704 5702 5677 5677 5682 5677 5674 5672 5669 5666 5664 5663 5662 5662 5662 5663 5664 5665 5666 5667 5668 5669 5672 5673 5674 5676 5679 5686 5693 5700 5707 5714 5719 5722 5725 5727 5730 5732 5733 5734 5735 5734 5730 5728
5730 5733 5726 5719 5709 5703 5705 5687 5668 5678 5665 5664 5665 5664 5662 5659 5657 5656 5656 5656 5656 5657 5657 5657 5657 5658 5659 5661 5663 5665 5667 5672 5678 5684 5690 5696 5703 5710 5714 5718 5720 5724 5727 5729 5729 5731 5730 5729 5727
5734 5729 5725 5719 5708 5690 5701 5688 5663 5665 5661 5661 5661 5660 5658 5656 5654 5653 5653 5652 5651 5651 5651 5651 5651 5651 5652 5653 5655 5657 5659 5663 5668 5673 5679 5686 5692 5699 5705 5710 5714 5718 5720 5723 5725 5727 5727 5726 5725
5733 5717 5702 5694 5685 5689 5700 5686 5665 5669 5669 5663 5659 5658 5657 5655 5652 5650 5649 5649 5648 5647 5646 5646 5645 5645 5646 5647 5648 5650 5653 5656 5660 5664 5670 5676 5681 5687 5694 5701 5706 5710 5713 5717 5719 5721 5722 5722 5721
5727 5718 5696 5683 5691 5688 5693 5679 5672 5677 5674 5669 5664 5660 5658 5655 5653 5651 5650 5649 5647 5646 5645 5644 5643 5642 5642 5643 5644 5645 5648 5650 5654 5658 5663 5668 5673 5679 5686 5692 5697 5702 5706 5709 5712 5714 5715 5717 5717
5720 5720 5719 5701 5706 5698 5691 5681 5675 5678 5673 5668 5665 5661 5657 5656 5655 5654 5652 5651 5649 5647 5645 5644 5642 5641 5641 5641 5642 5642 5644 5646 5648 5652 5657 5662 5667 5672 5678 5683 5688 5692 5696 5700 5704 5707 5708 5710 5711
5724 5716 5712 5702 5687 5682 5687 5682 5673 5671 5669 5668 5665 5661 5659 5659 5659 5657 5655 5654 5652 5650 5648 5646 5644 5641 5640 5640 5640 5640 5641 5643 5645 5647 5650 5655 5660 5665 5669 5674 5679 5683 5686 5690 5694 5697 5700 5702 5704
5719 5718 5711 5708 5701 5680 5670 5670 5686 5678 5674 5670 5668 5667 5664 5662 5662 5660 5659 5658 5656 5654 5651 5648 5645 5643 5641 5640 5640 5640 5639 5640 5642 5644 5646 5650 5654 5658 5661 5666 5669 5673 5677 5681 5685 5687 5690 5693 5695
5718 5711 5706 5693 5694 5695 5681 5673 5693 5686 5681 5677 5673 5672 5670 5668 5667 5666 5664 5661 5658 5655 5653 5650 5647 5645 5642 5641 5640 5640 5639 5639 5639 5641 5643 5647 5649 5652 5654 5658 5660 5664 5667 5671 5674 5677 5680 5682 5685